This demonstration page uses our WeatherBlox Daily Observations layout. Learn more.

Left ArrowRight Arrow

Hourly Observations for October 1, 2019

Temp ( °F °C ) Dew Point ( °F °C ) Humidity (%) Winds ( mph kmh ) Pressure ( in mb ) Visibility ( mi km ) Precip ( " mm )
12:53 am 00:53 Clear 67 19.4 65 18.3 93 93 Calm 30.04 1017 8 13 0.00 0.00
1:53 am 01:53 Clear with Mist and Fog 67 19.4 65 18.3 93 93 Calm 30.04 1017 6 10 0.00 0.00
2:53 am 02:53 Clear 66 18.9 65 18.3 96 96 Calm 30.04 1017 8 13 0.00 0.00
3:53 am 03:53 Clear with Mist and Fog 66 18.9 64 17.8 93 93 Calm 30.04 1017 6 10 0.00 0.00
4:53 am 04:53 Clear with Mist and Fog 65 18.3 64 17.8 97 97 Calm 30.05 1018 6 10 0.00 0.00
5:53 am 05:53 Clear with Mist and Fog 64 17.8 64 17.8 100 100 Calm 30.07 1018 4 6 0.00 0.00
6:53 am 06:53 Clear with Mist and Fog 63 17.2 63 17.2 100 100 Calm 30.08 1019 4 6 0.00 0.00
7:41 am 07:41 Sunny with Mist and Fog 63 17.2 63 17.2 100 100 Calm 30.10 1019 3 4 0.00 0.00
7:53 am 07:53 Sunny with Mist and Fog 63 17.2 62 16.7 97 97 Calm 30.10 1019 3 5 0.00 0.00
8:53 am 08:53 Sunny with Mist and Fog 71 21.7 67 19.4 87 87 Calm 30.09 1019 6 10 0.00 0.00
9:53 am 09:53 Sunny 78 25.6 69 20.6 74 74 Calm 30.09 1019 7 11 0.00 0.00
10:53 am 10:53 Sunny 84 28.9 68 20 59 59 VRB 6 9 30.09 1019 10 16 0.00 0.00
11:53 am 11:53 Sunny 88 31.1 68 20 52 52 SW 8 13 30.06 1018 10 16 0.00 0.00
12:53 pm 12:53 Partly Cloudy 89 31.7 66 18.9 47 47 SW 7 11 30.05 1018 10 16 0.00 0.00
1:53 pm 13:53 Mostly Cloudy 92 33.3 64 17.8 40 40 W 12 19 30.04 1017 10 16 0.00 0.00
2:53 pm 14:53 Mostly Cloudy 91 32.8 63 17.2 39 39 W 13 20 30.02 1017 10 16 0.00 0.00
3:53 pm 15:53 Mostly Sunny 92 33.3 63 17.2 38 38 W 9 15 30.01 1016 10 16 0.00 0.00
4:53 pm 16:53 Mostly Sunny 93 33.9 62 16.7 36 36 WSW 9 15 30.00 1016 10 16 0.00 0.00
5:53 pm 17:53 Sunny 91 32.8 61 16.1 37 37 W 12 19 29.99 1016 10 16 0.00 0.00
6:53 pm 18:53 Sunny 88 31.1 62 16.7 42 42 VRB 7 11 29.99 1016 10 16 0.00 0.00
7:53 pm 19:53 Clear 75 23.9 65 18.3 71 71 Calm 29.99 1016 10 16 0.00 0.00
8:53 pm 20:53 Clear 71 21.7 65 18.3 81 81 Calm 29.98 1015 10 16 0.00 0.00
9:53 pm 21:53 Clear 69 20.6 64 17.8 84 84 Calm 29.98 1015 10 16 0.00 0.00
10:53 pm 22:53 Clear 67 19.4 64 17.8 91 91 Calm 29.97 1015 10 16 0.00 0.00
11:53 pm 23:53 Clear 66 18.9 63 17.2 90 90 Calm 29.96 1015 10 16 0.00 0.00

Powered by AerisWeather